GW3170 Weather Reports


Display with metric or nautical units.
time (UTC)temp
F
wind
direction
speed
MPH
gust
MPH
rain 1hr
in
rain 24hr
in
rain mn
in
humidity
%
barometer
mb
20260831172554 68 0 0.0 0.0 0.00 0.06 0.06 93 1019.0
20260831172056 68 0 0.0 0.0 0.00 0.06 0.06 94 1019.0
20260831171608 67 0 0.0 0.0 0.00 0.06 0.06 94 1019.1
20260831171057 67 0 0.0 0.0 0.00 0.06 0.06 94 1019.1
20260831170556 67 0 0.0 0.0 0.00 0.06 0.06 94 1019.2
20260831165559 67 0 0.0 0.0 0.00 0.06 0.06 94 1019.2
20260831165056 67 0 0.0 0.0 0.00 0.06 0.06 94 1019.2
20260831164603 67 0 0.0 0.0 0.00 0.06 0.06 94 1019.2
20260831164056 67 0 0.0 0.0 0.00 0.06 0.06 93 1019.3
20260831163557 67 0 0.0 0.0 0.00 0.06 0.06 93 1019.4
20260831163109 67 0 0.0 0.0 0.00 0.06 0.06 93 1019.5
20260831162554 67 0 0.0 0.0 0.01 0.06 0.06 93 1019.4
20260831162054 67 0 0.0 0.0 0.01 0.06 0.06 94 1019.5
20260831161606 67 0 0.0 0.0 0.01 0.06 0.06 93 1019.6
20260831161057 67 0 0.0 0.0 0.01 0.06 0.06 93 1019.6
20260831160557 68 0 0.0 0.0 0.01 0.06 0.06 93 1019.7
20260831160104 68 0 0.0 0.0 0.01 0.06 0.06 94 1019.8
20260831155557 68 0 0.0 0.0 0.01 0.06 0.06 93 1019.9
20260831155101 68 0 0.0 0.0 0.02 0.06 0.06 94 1019.9
20260831154630 68 0 0.0 0.0 0.02 0.06 0.06 94 1019.9
20260831154053 68 0 0.0 0.0 0.02 0.06 0.06 95 1019.8
20260831153554 68 0 0.0 0.0 0.02 0.06 0.06 94 1019.7
20260831153106 68 0 0.0 0.0 0.03 0.06 0.06 95 1019.7
20260831152557 68 0 0.0 0.0 0.02 0.05 0.05 95 1019.8
20260831152057 67 0 0.0 0.0 0.02 0.05 0.05 95 1019.6
20260831151605 67 0 0.0 0.0 0.02 0.05 0.05 95 1019.5
20260831151057 67 0 0.0 0.0 0.03 0.05 0.05 95 1019.6
20260831150557 67 0 0.0 0.0 0.03 0.05 0.05 95 1019.4
20260831150104 67 0 0.0 0.0 0.04 0.05 0.05 95 1019.4
20260831145554 67 0 0.0 0.0 0.05 0.05 0.05 95 1019.5
20260831145057 67 0 0.0 0.0 0.04 0.04 0.04 95 1019.6
20260831144635 67 0 0.0 0.0 0.04 0.04 0.04 95 1019.6
20260831144057 67 0 0.0 0.0 0.04 0.04 0.04 95 1019.7
20260831143557 66 0 0.0 0.0 0.04 0.04 0.04 95 1019.7
20260831143100 66 0 0.0 0.0 0.03 0.03 0.03 95 1019.8
20260831142557 66 0 0.0 0.0 0.03 0.03 0.03 95 1019.7
20260831142056 66 0 0.0 0.0 0.03 0.03 0.03 95 1019.6
20260831141604 66 0 0.0 0.0 0.03 0.03 0.03 95 1019.6
20260831141059 66 0 0.0 0.0 0.02 0.02 0.02 96 1019.5
20260831140559 66 0 0.0 0.0 0.02 0.02 0.02 96 1019.3
20260831140105 65 0 0.0 0.0 0.01 0.01 0.01 96 1019.4
20260831135556 65 0 0.0 0.0 0.00 0.00 0.00 96 1019.4
20260831135157 65 0 0.0 0.0 0.00 0.00 0.00 96 1019.5
20260831134605 65 0 0.0 0.0 0.00 0.00 0.00 96 1019.4
20260831134057 65 0 0.0 0.0 0.00 0.00 0.00 96 1019.1
20260831133556 65 0 0.0 0.0 0.00 0.00 0.00 96 1019.2
20260831133104 64 0 0.0 0.0 0.00 0.00 0.00 96 1019.2
20260831132556 64 0 0.0 0.0 0.00 0.00 0.00 96 1019.3
20260831132057 64 0 0.0 0.0 0.00 0.00 0.00 96 1019.5
20260831131607 64 0 0.0 0.0 0.00 0.00 0.00 96 1019.6
20260831131055 64 0 0.0 0.0 0.00 0.00 0.00 96 1019.6
20260831130557 64 0 0.0 0.0 0.00 0.00 0.00 96 1019.5
20260831130116 64 0 0.0 0.0 0.00 0.00 0.00 96 1019.5
20260831125559 63 0 0.0 0.0 0.00 0.00 0.00 96 1019.3
20260831125057 63 0 0.0 0.0 0.00 0.00 0.00 96 1019.3
20260831124605 63 0 0.0 0.0 0.00 0.00 0.00 96 1019.4
20260831124054 63 0 0.0 0.0 0.00 0.00 0.00 96 1019.7
20260831123554 62 0 0.0 0.0 0.00 0.00 0.00 96 1019.6
20260831123108 62 0 0.0 0.0 0.00 0.00 0.00 96 1019.7
20260831122557 62 0 0.0 0.0 0.00 0.00 0.00 96 1019.7
20260831122054 62 0 0.0 0.0 0.00 0.00 0.00 96 1019.6
20260831121605 61 0 0.0 0.0 0.00 0.00 0.00 96 1019.6
20260831121057 61 0 0.0 0.0 0.00 0.00 0.00 96 1019.7
20260831120556 61 0 0.0 0.0 0.00 0.00 0.00 96 1019.9
20260831120113 61 0 0.0 0.0 0.00 0.00 0.00 96 1019.9
20260831115556 61 0 0.0 0.0 0.00 0.00 0.00 96 1019.8
20260831115054 61 0 0.0 0.0 0.00 0.00 0.00 96 1019.7
20260831114604 60 0 0.0 0.0 0.00 0.00 0.00 96 1019.8
20260831114057 60 0 0.0 0.0 0.00 0.00 0.00 96 1019.8
20260831113554 60 0 0.0 0.0 0.00 0.00 0.00 96 1019.7
20260831113109 60 0 0.0 0.0 0.00 0.00 0.00 96 1019.8
20260831112556 60 0 0.0 0.0 0.00 0.00 0.00 96 1019.9
20260831112056 60 0 0.0 0.0 0.00 0.00 0.00 96 1019.9
20260831111616 60 0 0.0 0.0 0.00 0.00 0.00 96 1019.8
20260831111056 59 0 0.0 0.0 0.00 0.00 0.00 95 1019.8
20260831110555 59 0 0.0 0.0 0.00 0.00 0.00 95 1019.7
20260831110141 59 0 0.0 0.0 0.00 0.00 0.00 95 1019.8
20260831105600 59 0 0.0 0.0 0.00 0.00 0.00 95 1019.6
20260831105057 59 0 0.0 0.0 0.00 0.00 0.00 95 1019.6
20260831104606 59 0 0.0 0.0 0.00 0.00 0.00 95 1019.7
20260831104056 59 0 0.0 0.0 0.00 0.00 0.00 95 1019.7
20260831103557 59 0 0.0 0.0 0.00 0.00 0.00 95 1019.6
20260831103109 59 0 0.0 0.0 0.00 0.00 0.00 95 1019.5
20260831102554 59 0 0.0 0.0 0.00 0.00 0.00 95 1019.5
20260831102054 59 0 0.0 0.0 0.00 0.00 0.00 95 1019.6
20260831101610 59 0 0.0 0.0 0.00 0.00 0.00 95 1019.5
20260831101056 59 0 0.0 0.0 0.00 0.00 0.00 95 1019.5
20260831100557 58 0 0.0 0.0 0.00 0.00 0.00 95 1019.5
20260831100108 58 0 0.0 0.0 0.00 0.00 0.00 95 1019.5
20260831095556 58 0 0.0 0.0 0.00 0.00 0.00 95 1019.5
20260831095057 58 0 0.0 0.0 0.00 0.00 0.00 95 1019.5
20260831094605 58 0 0.0 0.0 0.00 0.00 0.00 95 1019.5
20260831094057 58 0 0.0 0.0 0.00 0.00 0.00 95 1019.4
20260831093554 59 0 0.0 0.0 0.00 0.00 0.00 95 1019.4
20260831093102 59 0 0.0 0.0 0.00 0.00 0.00 95 1019.3
20260831092558 59 0 0.0 0.0 0.00 0.00 0.00 95 1019.3
20260831092102 59 0 0.0 0.0 0.00 0.00 0.00 95 1019.2
20260831091600 59 0 0.0 0.0 0.00 0.00 0.00 95 1019.3
20260831091057 59 0 0.0 0.0 0.00 0.00 0.00 95 1019.3
20260831090601 59 0 0.0 0.0 0.00 0.00 0.00 95 1019.5
20260831085557 59 0 0.0 0.0 0.00 0.00 0.00 95 1019.4
20260831085055 59 0 0.0 0.0 0.00 0.00 0.00 95 1019.4
20260831084608 59 0 0.0 0.0 0.00 0.00 0.00 95 1019.4
20260831084059 59 0 0.0 0.0 0.00 0.00 0.00 95 1019.5
20260831083554 59 0 0.0 0.0 0.00 0.00 0.00 95 1019.6
20260831083108 59 0 0.0 0.0 0.00 0.00 0.00 95 1019.5
20260831082557 59 0 0.0 0.0 0.00 0.00 0.00 95 1019.4
20260831082057 59 0 0.0 0.0 0.00 0.00 0.00 95 1019.4
20260831081635 59 0 0.0 0.0 0.00 0.00 0.00 95 1019.5
20260831081056 60 0 0.0 0.0 0.00 0.00 0.00 95 1019.5
20260831080556 60 0 0.0 0.0 0.00 0.00 0.00 95 1019.5
20260831080108 60 0 0.0 0.0 0.00 0.00 0.00 95 1019.4
20260831075554 60 0 0.0 0.0 0.00 0.00 0.00 95 1019.5
20260831075054 60 0 0.0 0.0 0.00 0.00 0.00 95 1019.5
20260831074609 60 0 0.0 0.0 0.00 0.00 0.00 95 1019.4
20260831074057 60 0 0.0 0.0 0.00 0.00 0.00 95 1019.4
20260831073557 60 0 0.0 0.0 0.00 0.00 0.00 95 1019.3
20260831073205 60 0 0.0 0.0 0.00 0.00 0.00 95 1019.3
20260831072554 60 0 0.0 0.0 0.00 0.00 0.00 95 1019.4
20260831072054 60 0 0.0 0.0 0.00 0.00 0.00 95 1019.4
20260831071602 60 0 0.0 0.0 0.00 0.00 0.00 94 1019.4
20260831071057 60 0 0.0 0.0 0.00 0.00 0.00 95 1019.5
20260831070557 61 0 0.0 0.0 0.00 0.00 0.00 95 1019.4
20260831065555 61 0 0.0 0.0 0.00 0.00 0.00 94 1019.4
20260831065055 61 0 0.0 0.0 0.00 0.00 0.00 95 1019.4
20260831064610 61 0 0.0 0.0 0.00 0.00 0.00 95 1019.4
20260831064056 61 0 0.0 0.0 0.00 0.00 0.00 95 1019.5
20260831063557 61 0 0.0 0.0 0.00 0.00 0.00 95 1019.7
20260831063105 61 0 0.0 0.0 0.00 0.00 0.00 95 1019.6
20260831062557 61 0 0.0 0.0 0.00 0.00 0.00 95 1019.5
20260831062057 62 0 0.0 0.0 0.00 0.00 0.00 95 1019.4
20260831061603 62 0 0.0 0.0 0.00 0.00 0.00 95 1019.6
20260831061055 62 0 0.0 0.0 0.00 0.00 0.00 95 1019.6
20260831060555 62 0 0.0 0.0 0.00 0.00 0.00 95 1019.7
20260831060116 62 0 0.0 0.0 0.00 0.00 0.00 95 1019.7
20260831055555 62 0 0.0 0.0 0.00 0.00 0.00 95 1019.7
20260831055059 62 0 0.0 0.0 0.00 0.00 0.00 95 1019.7
20260831054605 62 0 0.0 0.0 0.00 0.00 0.00 95 1019.7
20260831054057 62 0 0.0 0.0 0.00 0.00 0.00 95 1019.8
20260831053558 62 0 0.0 0.0 0.00 0.00 0.00 95 1019.8
20260831053102 62 0 0.0 0.0 0.00 0.00 0.00 95 1019.9
20260831052555 62 0 0.0 0.0 0.00 0.00 0.00 95 1020.1
20260831052054 62 0 0.0 0.0 0.00 0.00 0.00 95 1020.0
20260831051603 62 0 0.0 0.0 0.00 0.00 0.00 95 1020.1
20260831051057 62 0 0.0 0.0 0.00 0.00 0.00 95 1020.2
20260831050557 62 0 0.0 0.0 0.00 0.00 0.00 95 1020.2
20260831050140 62 0 0.0 0.0 0.00 0.00 0.00 95 1020.1
20260831045557 62 0 0.0 0.0 0.00 0.00 0.00 95 1020.3
20260831045057 62 0 0.0 0.0 0.00 0.00 0.00 95 1020.3
20260831044606 62 0 0.0 0.0 0.00 0.00 0.00 95 1020.3
20260831044058 62 0 0.0 0.0 0.00 0.00 0.00 95 1020.3
20260831043554 61 0 0.0 0.0 0.00 0.00 0.00 95 1020.1
20260831043106 61 0 0.0 0.0 0.00 0.00 0.00 95 1020.0
20260831042554 61 0 0.0 0.0 0.00 0.00 0.00 94 1020.1
20260831042057 61 0 0.0 0.0 0.00 0.00 0.00 94 1020.0
20260831041608 61 0 0.0 0.0 0.00 0.00 0.00 94 1020.1
20260831041057 61 0 0.0 0.0 0.00 0.00 0.00 94 1020.1
20260831040557 61 0 0.0 0.0 0.00 0.00 0.00 94 1020.1
20260831040104 61 0 0.0 0.0 0.00 0.00 0.00 94 1020.0
20260831035555 61 0 0.0 0.0 0.00 0.00 0.00 95 1020.1
20260831035056 61 0 0.0 0.0 0.00 0.00 0.00 95 1020.0
20260831034607 61 0 0.0 0.0 0.00 0.00 0.00 95 1019.9
20260831034057 61 0 0.0 0.0 0.00 0.00 0.00 95 1020.1
20260831033557 60 0 0.0 0.0 0.00 0.00 0.00 95 1020.1
20260831033103 60 0 0.0 0.0 0.00 0.00 0.00 94 1020.1
20260831032557 60 0 0.0 0.0 0.00 0.00 0.00 94 1019.9
20260831032059 60 0 0.0 0.0 0.00 0.00 0.00 94 1019.9
20260831031606 60 0 0.0 0.0 0.00 0.00 0.00 93 1019.9
20260831031056 60 0 0.0 0.0 0.00 0.00 0.00 93 1020.0
20260831030556 61 0 0.0 0.0 0.00 0.00 0.00 93 1020.0
20260831030109 61 0 0.0 0.0 0.00 0.00 0.00 93 1019.9
20260831025557 62 0 0.0 0.0 0.00 0.00 0.00 93 1020.0
20260831025100 62 0 0.0 0.0 0.00 0.00 0.00 94 1020.1
20260831024607 62 0 0.0 0.0 0.00 0.00 0.00 94 1020.2
20260831024057 62 0 0.0 0.0 0.00 0.00 0.00 94 1020.1
20260831023558 62 0 0.0 0.0 0.00 0.00 0.00 94 1020.0
20260831023100 62 0 0.0 0.0 0.00 0.00 0.00 94 1020.0
20260831022559 62 0 0.0 0.0 0.00 0.00 0.00 93 1019.9
20260831022056 62 0 0.0 0.0 0.00 0.00 0.00 93 1020.0
20260831021609 62 0 0.0 0.0 0.00 0.00 0.00 93 1019.9
20260831021057 63 0 0.0 0.0 0.00 0.00 0.00 93 1019.9
20260831020558 63 0 0.0 0.0 0.00 0.00 0.00 93 1019.9
20260831020108 63 0 0.0 0.0 0.00 0.00 0.00 94 1019.9
20260831015556 63 0 0.0 0.0 0.00 0.00 0.00 94 1019.9
20260831015057 63 0 0.0 0.0 0.00 0.00 0.00 94 1019.8
20260831014602 63 0 0.0 0.0 0.00 0.00 0.00 94 1019.8
20260831014057 62 0 0.0 0.0 0.00 0.00 0.00 94 1019.9
20260831013558 62 0 0.0 0.0 0.00 0.00 0.00 93 1019.8
20260831013104 63 0 0.0 0.0 0.00 0.00 0.00 93 1019.8
20260831012601 63 0 0.0 0.0 0.00 0.00 0.00 93 1019.9
20260831012056 63 0 0.0 0.0 0.00 0.00 0.00 93 1019.9
20260831011608 63 0 0.0 0.0 0.00 0.00 0.00 93 1019.9
20260831011057 63 0 0.0 0.0 0.00 0.00 0.00 93 1019.8
20260831010557 63 0 0.0 0.0 0.00 0.00 0.00 93 1019.8
20260831010105 63 0 0.0 0.0 0.00 0.00 0.00 93 1019.7
20260831005558 63 0 0.0 0.0 0.00 0.00 0.00 92 1019.8
20260831005057 63 0 0.0 0.0 0.00 0.00 0.00 92 1019.7
20260831004610 63 0 0.0 0.0 0.00 0.00 0.00 92 1019.8
20260831004057 63 0 0.0 0.0 0.00 0.00 0.00 92 1019.8
20260831003557 63 0 0.0 0.0 0.00 0.00 0.00 92 1019.7
20260831003104 63 0 0.0 0.0 0.00 0.00 0.00 92 1019.7
20260831002557 64 0 0.0 0.0 0.00 0.00 0.00 92 1019.7
20260831002058 64 0 0.0 0.0 0.00 0.00 0.00 91 1019.6
20260831001603 64 0 0.0 0.0 0.00 0.00 0.00 92 1019.4
20260831001055 65 0 0.0 0.0 0.00 0.00 0.00 92 1019.4
20260831000558 65 0 0.0 0.0 0.00 0.00 0.00 92 1019.2
20260831000109 65 0 0.0 0.0 0.00 0.00 0.00 92 1019.2
20260830235557 66 0 0.0 0.0 0.00 0.00 0.00 92 1019.1
20260830235058 66 0 0.0 0.0 0.00 0.00 0.00 92 1019.1
20260830234612 66 0 0.0 0.0 0.00 0.00 0.00 92 1019.0
20260830234058 66 0 0.0 0.0 0.00 0.00 0.00 92 1019.0
20260830233557 66 0 0.0 0.0 0.00 0.00 0.00 92 1019.1
20260830233108 66 0 0.0 0.0 0.00 0.00 0.00 92 1018.9
20260830232558 67 0 0.0 0.0 0.00 0.00 0.00 92 1018.9
20260830232101 67 0 0.0 0.0 0.00 0.00 0.00 92 1018.8
20260830231605 67 0 0.0 0.0 0.00 0.00 0.00 92 1018.8
20260830231057 67 0 0.0 0.0 0.00 0.00 0.00 92 1018.9
20260830230601 67 0 0.0 0.0 0.00 0.00 0.00 92 1018.8
20260830230106 67 0 0.0 0.0 0.00 0.00 0.00 92 1018.8
20260830225557 67 0 0.0 0.0 0.00 0.00 0.00 92 1018.8
20260830225057 67 0 0.0 0.0 0.00 0.00 0.00 92 1018.8
20260830224610 66 0 0.0 0.0 0.00 0.00 0.00 92 1018.9
20260830224057 66 0 0.0 0.0 0.00 0.00 0.00 92 1018.9
20260830223558 66 0 0.0 0.0 0.00 0.00 0.00 92 1018.8
20260830223106 66 0 0.0 0.0 0.00 0.00 0.00 92 1018.9
20260830222556 66 0 0.0 0.0 0.00 0.00 0.00 92 1018.9
20260830222057 66 0 0.0 0.0 0.00 0.00 0.00 92 1018.9
20260830221603 66 0 0.0 0.0 0.00 0.00 0.00 92 1018.8
20260830221100 66 0 0.0 0.0 0.00 0.00 0.00 92 1018.9
20260830220554 66 0 0.0 0.0 0.00 0.00 0.00 92 1018.9
20260830220106 66 0 0.0 0.0 0.00 0.00 0.00 92 1018.8
20260830215554 66 0 0.0 0.0 0.00 0.00 0.00 92 1018.7
20260830215055 66 0 0.0 0.0 0.00 0.00 0.00 92 1018.8
20260830214604 66 0 0.0 0.0 0.00 0.00 0.00 92 1018.8
20260830214057 66 0 0.0 0.0 0.00 0.00 0.00 92 1018.7
20260830213557 66 0 0.0 0.0 0.00 0.00 0.00 92 1018.8
20260830213109 66 0 0.0 0.0 0.00 0.00 0.00 92 1018.7
20260830212600 66 0 0.0 0.0 0.00 0.00 0.00 92 1018.8
20260830212057 66 0 0.0 0.0 0.00 0.00 0.00 92 1018.8
20260830211601 66 0 0.0 0.0 0.00 0.00 0.00 92 1018.8
20260830211055 66 0 0.0 0.0 0.00 0.00 0.00 92 1019.0
20260830210555 66 0 0.0 0.0 0.00 0.00 0.00 92 1019.0
20260830210107 66 0 0.0 0.0 0.00 0.00 0.00 92 1019.0
20260830205557 65 0 0.0 0.0 0.00 0.00 0.00 92 1019.1
20260830205057 65 0 0.0 0.0 0.00 0.00 0.00 91 1019.0
20260830204618 65 0 0.0 0.0 0.00 0.00 0.00 91 1019.0
20260830204100 66 0 0.0 0.0 0.00 0.00 0.00 91 1019.0
20260830203557 66 0 0.0 0.0 0.00 0.00 0.00 91 1019.1
20260830203103 66 0 0.0 0.0 0.00 0.00 0.00 92 1019.1
20260830202600 66 0 0.0 0.0 0.00 0.00 0.00 91 1019.0
20260830202057 66 0 0.0 0.0 0.00 0.00 0.00 91 1019.1
20260830201631 66 0 0.0 0.0 0.00 0.00 0.00 92 1018.9
20260830201057 66 0 0.0 0.0 0.00 0.00 0.00 92 1018.9
20260830200557 66 0 0.0 0.0 0.00 0.00 0.00 91 1018.9
20260830200104 66 0 0.0 0.0 0.00 0.00 0.00 92 1018.9
20260830195557 65 0 0.0 0.0 0.00 0.00 0.00 91 1019.0
20260830195057 65 0 0.0 0.0 0.00 0.00 0.00 91 1019.1
20260830194604 65 0 0.0 0.0 0.00 0.00 0.00 91 1019.2
20260830194059 65 0 0.0 0.0 0.00 0.00 0.00 91 1019.1
20260830193601 65 0 0.0 0.0 0.00 0.00 0.00 91 1019.1
20260830193102 65 0 0.0 0.0 0.00 0.00 0.00 91 1019.1
20260830192556 65 0 0.0 0.0 0.00 0.00 0.00 91 1019.2
20260830192057 65 0 0.0 0.0 0.00 0.00 0.00 91 1019.2
20260830191631 65 0 0.0 0.0 0.00 0.00 0.00 91 1019.3
20260830191057 65 0 0.0 0.0 0.00 0.00 0.00 91 1019.3
20260830190557 65 0 0.0 0.0 0.00 0.00 0.00 91 1019.4
20260830190125 65 0 0.0 1.0 0.00 0.00 0.00 91 1019.5
20260830185558 65 0 0.0 2.0 0.00 0.00 0.00 91 1019.6
20260830185057 65 0 0.0 2.0 0.00 0.00 0.00 90 1019.6
20260830184609 65 0 0.0 4.0 0.00 0.00 0.00 90 1019.6
20260830184056 65 0 1.0 4.0 0.00 0.00 0.00 89 1019.7
20260830183556 65 0 0.0 2.0 0.00 0.00 0.00 89 1019.8
20260830183108 65 0 0.0 2.0 0.00 0.00 0.00 89 1019.7
20260830182557 65 0 0.0 2.0 0.00 0.00 0.00 89 1019.8
20260830182057 65 0 0.0 2.0 0.00 0.00 0.00 88 1019.8
20260830181602 65 348 0.0 5.0 0.00 0.00 0.00 88 1019.8
20260830181101 66 0 0.0 5.0 0.00 0.00 0.00 87 1019.8
20260830180559 66 283 1.0 3.0 0.00 0.00 0.00 86 1019.9
20260830180113 66 0 0.0 2.0 0.00 0.00 0.00 85 1019.8
20260830175559 67 0 0.0 1.0 0.00 0.00 0.00 84 1019.9
20260830175056 67 0 0.0 1.0 0.00 0.00 0.00 84 1019.7
20260830174608 67 0 0.0 0.0 0.00 0.00 0.00 84 1019.7
20260830174056 67 0 0.0 2.0 0.00 0.00 0.00 83 1019.7
20260830173559 68 0 0.0 3.0 0.00 0.00 0.00 82 1019.6
20260830173109 68 305 0.0 3.0 0.00 0.00 0.00 80 1019.6